Login

Beijing

Pos Pair Lane Name Born Nation Time
1 11 O Kjeld Nuis 1989 Netherlands 1:43.21
2 10 I Thomas Krol 1992 Netherlands 1:43.55
3 11 I Min-Seok Kim 1999 South Korea 1:44.24
4 10 O Peder Kongshaug 2001 Norway 1:44.39
5 15 O Connor Howe 2000 Canada 1:44.86
6 13 O Joey Mantia 1986 USA 1:45.26
7 14 O Zhongyan Ning 1999 China 1:45.28
8 9 O Sergey Trofimov 1995 Russia 1:45.32
9 4 O Marcel Bosker 1997 Netherlands 1:45.42
10 13 I Seitaro Ichinohe 1996 Japan 1:45.53
11 9 I Emery Lehman 1996 USA 1:45.78
12 15 I Allan Dahl Johansson 1998 Norway 1:45.81
13 12 O Bart Swings 1991 Belgium 1:45.82
14 7 I Daniil Aldoshkin 2001 Russia 1:46.33
15 3 I Ruslan Zakharov (87) 1987 Russia 1:46.46
16 12 I Kristian Ulekleiv 1996 Norway 1:46.56
17 14 I Takuro Oda 1992 Japan 1:46.60
18 5 I Dmitriy Morozov 1996 Kazakhstan 1:47.01
19 4 I Cornelius Kersten 1994 Great Britain 1:47.11
20 6 O Haotian Wang 1998 China 1:47.13
21 3 O Seonghyeon Park 1999 South Korea 1:47.59
22 8 O Tyson Langelaar 1999 Canada 1:47.81
23 2 O Antoine Gélinas-Beaulieu 1992 Canada 1:48.00
24 2 I Haralds Silovs 1986 Latvia 1:48.24
25 6 I Alessio Trentini 1994 Italy 1:48.33
26 1 I Peter Michael 1989 New Zealand 1:48.68
27 5 O Ziwen Lian 1998 China 1:49.15
28 7 O Casey Dawson 2000 USA 1:49.45
29 8 I Mathias Vosté 1994 Belgium 1:49.93

Info

What Olympic Winter Games 2022
Discipline 1.500
Host Beijing
Nation China
Date Tuesday 8.Feb 2022
Calendar 2021/2022
Air Temp 19.8 C
Ice Temp -10.6 C
Humidity 20.0 %